Highspire, PA

6:27 AM EDT on September 27, 2016 (GMT -0400)
Harrisburg International

Weather History for KMDT - September, 2013

Change the Weather History Date:

Tuesday, September 3, 2013

  Actual Average Record
Temperature  
Mean Temperature 73 °F 71 °F  
Max Temperature 81 °F 80 °F 102 °F (1953)
Min Temperature 65 °F 61 °F 43 °F (1967)
Degree Days  
Heating Degree Days 0 0  
Month to date heating degree days 0 0  
Since 1 July heating degree days 0 2  
Cooling Degree Days 8 6  
Month to date cooling degree days 38 19  
Year to date cooling degree days 990 915  
Growing Degree Days 23 (Base 50)    
Moisture  
Dew Point 58 °F    
Average Humidity 59    
Maximum Humidity 79    
Minimum Humidity 39    
Precipitation  
Precipitation 0.00 in 0.12 in 1.52 in (1993)
Month to date precipitation 0.01 0.35  
Year to date precipitation 24.28 27.29  
Sea Level Pressure  
Sea Level Pressure 29.84 in    
Wind  
Wind Speed 11 mph (NW)    
Max Wind Speed 21 mph    
Max Gust Speed 26 mph    
Visibility 10 miles    
Events      
T = Trace of Precipitation, MM = Missing Value Source: NWS Daily Summary

Daily Weather History Graph

Daily Weather History Graph

Search for Another Location

Airport or City:

Trip Planner

Search our weather history database for the weather conditions in past years. The results will help you decide how hot, cold, wet, or windy it might be!

Date:

Astronomy

Sep. 03, 2013 Rise Set
Actual Time 6:36 AM EDT 7:35 PM EDT
Civil Twilight 6:08 AM EDT 8:02 PM EDT
Nautical Twilight 5:35 AM EDT 8:35 PM EDT
Astronomical Twilight 5:01 AM EDT 9:09 PM EDT
Moon 4:48 AM EDT (9/3) 6:21 PM EDT (9/3)
Length of Visible Light 13h 53m
Length of Day
12h 58m
Waning Crescent, 3% of the Moon is Illuminated
Sep 3
Waning Crescent
Sep 5
New
Sep 12
First Quarter
Sep 19
Full
Sep 26
Last Quarter

Hourly Weather History & Observations

Time (EDT) Temp. Heat Index Dew Point Humidity Pressure Visibility Wind Dir Wind Speed Gust Speed Precip Events Conditions
12:56 AM 72.0 °F - 64.9 °F 78% 29.73 in 10.0 mi Calm Calm - N/A   Scattered Clouds
1:56 AM 73.0 °F - 66.9 °F 81% 29.74 in 10.0 mi NNW 3.5 mph - N/A   Mostly Cloudy
2:56 AM 73.9 °F - 66.9 °F 79% 29.75 in 10.0 mi WNW 6.9 mph - N/A   Mostly Cloudy
3:56 AM 73.0 °F - 64.9 °F 76% 29.75 in 10.0 mi NW 8.1 mph - N/A   Overcast
4:56 AM 72.0 °F - 64.9 °F 78% 29.76 in 10.0 mi NW 8.1 mph - N/A   Scattered Clouds
5:56 AM 71.1 °F - 64.9 °F 81% 29.78 in 10.0 mi NW 8.1 mph - N/A   Mostly Cloudy
6:56 AM 71.1 °F - 62.1 °F 73% 29.80 in 10.0 mi NNW 8.1 mph - N/A   Scattered Clouds
7:56 AM 72.0 °F - 60.1 °F 66% 29.83 in 10.0 mi NNW 8.1 mph - N/A   Scattered Clouds
8:56 AM 73.0 °F - 57.9 °F 59% 29.84 in 10.0 mi NW 13.8 mph - N/A   Scattered Clouds
9:56 AM 73.0 °F - 57.9 °F 59% 29.85 in 10.0 mi NW 9.2 mph - N/A   Partly Cloudy
10:56 AM 75.0 °F - 57.0 °F 53% 29.86 in 10.0 mi NW 9.2 mph - N/A   Scattered Clouds
11:56 AM 75.0 °F - 57.0 °F 53% 29.85 in 10.0 mi NW 11.5 mph 19.6 mph N/A   Mostly Cloudy
12:56 PM 79.0 °F - 57.0 °F 47% 29.84 in 10.0 mi WNW 15.0 mph 20.7 mph N/A   Scattered Clouds
1:56 PM 78.1 °F - 55.0 °F 45% 29.84 in 10.0 mi WNW 15.0 mph 21.9 mph N/A   Scattered Clouds
2:56 PM 80.1 °F 80.2 °F 55.9 °F 43% 29.83 in 10.0 mi WNW 13.8 mph 20.7 mph N/A   Scattered Clouds
3:56 PM 80.1 °F 80.0 °F 54.0 °F 40% 29.82 in 10.0 mi NW 12.7 mph - N/A   Scattered Clouds
4:56 PM 79.0 °F - 52.0 °F 39% 29.83 in 10.0 mi NW 13.8 mph 21.9 mph N/A   Scattered Clouds
5:56 PM 77.0 °F - 53.1 °F 43% 29.85 in 10.0 mi North 13.8 mph - N/A   Partly Cloudy
6:56 PM 73.9 °F - 53.1 °F 48% 29.88 in 10.0 mi NW 15.0 mph 24.2 mph N/A   Partly Cloudy
7:56 PM 71.1 °F - 52.0 °F 51% 29.91 in 10.0 mi NNW 15.0 mph - N/A   Partly Cloudy
8:56 PM 69.1 °F - 52.0 °F 54% 29.93 in 10.0 mi NW 16.1 mph - N/A   Clear
9:56 PM 68.0 °F - 52.0 °F 56% 29.95 in 10.0 mi NW 13.8 mph - N/A   Clear
10:56 PM 66.0 °F - 52.0 °F 60% 29.96 in 10.0 mi NW 9.2 mph - N/A   Partly Cloudy
11:56 PM 66.0 °F - 53.1 °F 63% 29.96 in 10.0 mi NW 8.1 mph - N/A   Partly Cloudy